Time,TemperatureF,DewpointF,PressureIn,WindDirection,WindDirectionDegrees,WindSpeedMPH,WindSpeedGustMPH,Humidity,HourlyPrecipIn,Conditions,Clouds,dailyrainin,SolarRadiationWatts/m^2,SoftwareType,DateUTC
2014-08-23 00:00:00,86.2,70.7,29.92,SSE,148,3.5,4.6,60,0.00,CLR,,0.00,0.0,WeatherDisplay:10.37,2014-08-23 05:00:00,
2014-08-23 00:05:00,86.2,70.7,29.92,SE,141,6.9,16.1,60,0.00,CLR,,0.00,0.0,WeatherDisplay:10.37,2014-08-23 05:05:00,
2014-08-23 00:10:00,86.1,70.6,29.92,SSE,159,6.3,8.1,60,0.00,CLR,,0.00,0.0,WeatherDisplay:10.37,2014-08-23 05:10:00,
2014-08-23 00:15:00,86.1,70.6,29.92,SSE,162,8.5,8.5,60,0.00,CLR,,0.00,0.0,WeatherDisplay:10.37,2014-08-23 05:15:00,
2014-08-23 00:20:00,86.0,70.5,29.92,South,189,7.2,15.0,60,0.00,CLR,,0.00,0.0,WeatherDisplay:10.37,2014-08-23 05:20:00,
2014-08-23 00:25:00,85.9,70.4,29.92,SSE,150,8.8,10.4,60,0.00,CLR,,0.00,0.0,WeatherDisplay:10.37,2014-08-23 05:25:00,
2014-08-23 00:30:00,85.8,70.3,29.92,SE,127,6.3,11.5,60,0.00,CLR,,0.00,0.0,WeatherDisplay:10.37,2014-08-23 05:30:00,
2014-08-23 00:35:00,85.8,70.3,29.92,South,182,6.5,10.4,60,0.00,CLR,,0.00,0.0,WeatherDisplay:10.37,2014-08-23 05:35:00,
2014-08-23 00:40:00,85.7,70.2,29.92,SE,143,8.1,11.3,60,0.00,CLR,,0.00,0.0,WeatherDisplay:10.37,2014-08-23 05:40:00,
2014-08-23 00:45:00,85.6,70.1,29.92,SE,138,5.3,9.2,60,0.00,CLR,,0.00,0.0,WeatherDisplay:10.37,2014-08-23 05:45:00,
2014-08-23 00:50:00,85.5,70.0,29.92,South,170,9.0,13.8,60,0.00,CLR,,0.00,0.0,WeatherDisplay:10.37,2014-08-23 05:50:00,
2014-08-23 00:55:00,85.4,69.9,29.92,SSE,161,6.4,11.5,60,0.00,CLR,,0.00,0.0,WeatherDisplay:10.37,2014-08-23 05:55:00,
2014-08-23 01:00:00,85.4,69.9,29.92,ESE,110,6.0,15.0,60,0.00,CLR,,0.00,0.0,WeatherDisplay:10.37,2014-08-23 06:00:00,
2014-08-23 01:05:00,85.3,69.8,29.92,South,185,6.9,9.2,60,0.00,CLR,,0.00,0.0,WeatherDisplay:10.37,2014-08-23 06:05:00,
2014-08-23 01:10:00,85.2,70.2,29.92,South,173,5.5,7.2,61,0.00,CLR,,0.00,0.0,WeatherDisplay:10.37,2014-08-23 06:10:00,
2014-08-23 01:15:00,85.1,70.1,29.92,SE,142,6.0,10.4,61,0.00,CLR,,0.00,0.0,WeatherDisplay:10.37,2014-08-23 06:15:00,
2014-08-23 01:20:00,85.0,70.0,29.92,SE,138,7.5,16.1,61,0.00,CLR,,0.00,0.0,WeatherDisplay:10.37,2014-08-23 06:20:00,
2014-08-23 01:25:00,85.0,70.0,29.93,South,182,6.0,9.2,61,0.00,CLR,,0.00,0.0,WeatherDisplay:10.37,2014-08-23 06:25:00,
2014-08-23 01:30:00,84.9,70.4,29.93,SSE,162,7.6,11.3,62,0.00,CLR,,0.00,0.0,WeatherDisplay:10.37,2014-08-23 06:30:00,
2014-08-23 01:35:00,84.9,70.4,29.93,South,170,8.1,11.5,62,0.00,CLR,,0.00,0.0,WeatherDisplay:10.37,2014-08-23 06:35:00,
2014-08-23 01:40:00,84.9,69.9,29.93,SE,133,6.7,15.0,61,0.00,CLR,,0.00,0.0,WeatherDisplay:10.37,2014-08-23 06:40:00,
2014-08-23 01:45:00,84.9,69.9,29.93,SSW,200,6.3,13.4,61,0.00,CLR,,0.00,0.0,WeatherDisplay:10.37,2014-08-23 06:45:00,
2014-08-23 01:50:00,84.9,69.9,29.93,SSW,196,9.6,12.7,61,0.00,CLR,,0.00,0.0,WeatherDisplay:10.37,2014-08-23 06:50:00,
2014-08-23 01:55:00,84.8,70.3,29.93,SW,234,6.5,15.0,62,0.00,CLR,,0.00,0.0,WeatherDisplay:10.37,2014-08-23 06:55:00,
2014-08-23 02:00:00,84.7,70.2,29.93,SSW,195,5.8,11.5,62,0.00,CLR,,0.00,0.0,WeatherDisplay:10.37,2014-08-23 07:00:00,
2014-08-23 02:05:00,84.6,70.1,29.93,SSW,208,5.3,10.4,62,0.00,CLR,,0.00,0.0,WeatherDisplay:10.37,2014-08-23 07:05:00,
2014-08-23 02:10:00,84.4,70.0,29.93,ESE,116,13.2,16.1,62,0.00,CLR,,0.00,0.0,WeatherDisplay:10.37,2014-08-23 07:10:00,
2014-08-23 02:15:00,84.3,70.3,29.93,SW,214,7.1,13.8,63,0.00,CLR,,0.00,0.0,WeatherDisplay:10.37,2014-08-23 07:15:00,
2014-08-23 02:20:00,84.2,70.2,29.93,South,182,3.9,11.5,63,0.00,CLR,,0.00,0.0,WeatherDisplay:10.37,2014-08-23 07:20:00,
2014-08-23 02:25:00,84.1,70.1,29.93,SSW,198,12.5,15.0,63,0.00,CLR,,0.00,0.0,WeatherDisplay:10.37,2014-08-23 07:25:00,
2014-08-23 02:30:00,84.1,70.6,29.93,SSW,205,7.1,19.6,64,0.00,CLR,,0.00,0.0,WeatherDisplay:10.37,2014-08-23 07:30:00,
2014-08-23 02:35:00,84.0,70.5,29.93,SE,146,10.9,17.3,64,0.00,CLR,,0.00,0.0,WeatherDisplay:10.37,2014-08-23 07:35:00,
2014-08-23 02:40:00,83.8,70.3,29.93,South,189,8.2,13.8,64,0.00,CLR,,0.00,0.0,WeatherDisplay:10.37,2014-08-23 07:40:00,
2014-08-23 02:45:00,83.7,70.7,29.93,SSW,203,6.6,15.0,65,0.00,CLR,,0.00,0.0,WeatherDisplay:10.37,2014-08-23 07:45:00,
2014-08-23 02:50:00,83.5,70.5,29.93,South,172,11.6,13.8,65,0.00,CLR,,0.00,0.0,WeatherDisplay:10.37,2014-08-23 07:50:00,
2014-08-23 02:55:00,83.4,70.4,29.93,SSE,150,6.8,10.4,65,0.00,CLR,,0.00,0.0,WeatherDisplay:10.37,2014-08-23 07:55:00,
2014-08-23 03:00:00,83.3,70.8,29.93,South,181,4.3,13.8,66,0.00,CLR,,0.00,0.0,WeatherDisplay:10.37,2014-08-23 08:00:00,
2014-08-23 03:05:00,83.1,70.6,29.93,South,182,9.5,11.5,66,0.00,CLR,,0.00,0.0,WeatherDisplay:10.37,2014-08-23 08:05:00,
2014-08-23 03:10:00,82.9,70.4,29.93,South,189,5.9,11.5,66,0.00,CLR,,0.00,0.0,WeatherDisplay:10.37,2014-08-23 08:10:00,
2014-08-23 03:15:00,82.8,70.7,29.93,SSW,197,4.1,11.5,67,0.00,CLR,,0.00,0.0,WeatherDisplay:10.37,2014-08-23 08:15:00,
2014-08-23 03:20:00,82.7,70.6,29.93,SSW,208,7.2,9.2,67,0.00,CLR,,0.00,0.0,WeatherDisplay:10.37,2014-08-23 08:20:00,
2014-08-23 03:25:00,82.6,70.5,29.93,South,182,4.6,11.5,67,0.00,CLR,,0.00,0.0,WeatherDisplay:10.37,2014-08-23 08:25:00,
2014-08-23 03:30:00,82.5,70.4,29.93,SSW,209,10.6,10.6,67,0.00,CLR,,0.00,0.0,WeatherDisplay:10.37,2014-08-23 08:30:00,
2014-08-23 03:35:00,82.3,70.2,29.93,South,184,7.9,10.4,67,0.00,CLR,,0.00,0.0,WeatherDisplay:10.37,2014-08-23 08:35:00,
2014-08-23 03:40:00,82.3,70.2,29.93,South,173,5.3,10.4,67,0.00,CLR,,0.00,0.0,WeatherDisplay:10.37,2014-08-23 08:40:00,
2014-08-23 03:45:00,82.2,70.6,29.93,South,180,4.9,10.4,68,0.00,CLR,,0.00,0.0,WeatherDisplay:10.37,2014-08-23 08:45:00,
2014-08-23 03:50:00,82.1,70.5,29.93,South,187,4.7,11.5,68,0.00,CLR,,0.00,0.0,WeatherDisplay:10.37,2014-08-23 08:50:00,
2014-08-23 03:55:00,81.9,70.3,29.93,SSW,206,5.8,9.2,68,0.00,CLR,,0.00,0.0,WeatherDisplay:10.37,2014-08-23 08:55:00,
2014-08-23 04:00:00,81.8,70.2,29.93,SSE,147,4.2,5.8,68,0.00,CLR,,0.00,0.0,WeatherDisplay:10.37,2014-08-23 09:00:00,
2014-08-23 04:05:00,81.7,70.1,29.93,South,187,4.6,6.9,68,0.00,CLR,,0.00,0.0,WeatherDisplay:10.37,2014-08-23 09:05:00,
2014-08-23 04:10:00,81.6,70.0,29.93,SE,142,5.1,8.1,68,0.00,CLR,,0.00,0.0,WeatherDisplay:10.37,2014-08-23 09:10:00,
2014-08-23 04:15:00,81.5,70.3,29.93,SSE,163,6.3,6.3,69,0.00,CLR,,0.00,0.0,WeatherDisplay:10.37,2014-08-23 09:15:00,
2014-08-23 04:20:00,81.4,70.2,29.93,South,187,6.4,10.4,69,0.00,CLR,,0.00,0.0,WeatherDisplay:10.37,2014-08-23 09:20:00,
2014-08-23 04:25:00,81.3,70.2,29.93,SSE,167,5.0,6.9,69,0.00,CLR,,0.00,0.0,WeatherDisplay:10.37,2014-08-23 09:25:00,
2014-08-23 04:30:00,81.2,70.1,29.93,SSW,200,1.6,6.9,69,0.00,CLR,,0.00,0.0,WeatherDisplay:10.37,2014-08-23 09:30:00,
2014-08-23 04:35:00,81.2,70.1,29.93,SE,139,2.5,3.5,69,0.00,CLR,,0.00,0.0,WeatherDisplay:10.37,2014-08-23 09:35:00,
2014-08-23 04:40:00,81.1,70.0,29.94,SSE,168,6.3,8.1,69,0.00,CLR,,0.00,0.0,WeatherDisplay:10.37,2014-08-23 09:40:00,
2014-08-23 04:45:00,81.0,69.9,29.93,South,181,5.6,10.3,69,0.00,CLR,,0.00,0.0,WeatherDisplay:10.37,2014-08-23 09:45:00,
2014-08-23 04:50:00,80.9,69.8,29.93,SE,131,3.1,4.6,69,0.00,CLR,,0.00,0.0,WeatherDisplay:10.37,2014-08-23 09:50:00,
2014-08-23 04:55:00,80.7,69.6,29.93,South,178,3.0,4.6,69,0.00,CLR,,0.00,0.0,WeatherDisplay:10.37,2014-08-23 09:55:00,
2014-08-23 05:00:00,80.7,69.6,29.94,South,188,2.0,6.2,69,0.00,CLR,,0.00,0.0,WeatherDisplay:10.37,2014-08-23 10:00:00,
2014-08-23 05:05:00,80.6,69.5,29.94,SSW,192,4.1,11.5,69,0.00,CLR,,0.00,0.0,WeatherDisplay:10.37,2014-08-23 10:05:00,
2014-08-23 05:10:00,80.6,69.5,29.94,South,191,3.1,8.1,69,0.00,CLR,,0.00,0.0,WeatherDisplay:10.37,2014-08-23 10:10:00,
2014-08-23 05:15:00,80.5,69.4,29.94,SSW,197,2.6,3.5,69,0.00,CLR,,0.00,0.0,WeatherDisplay:10.37,2014-08-23 10:15:00,
2014-08-23 05:20:00,80.4,69.3,29.94,South,184,2.9,5.8,69,0.00,CLR,,0.00,0.0,WeatherDisplay:10.37,2014-08-23 10:20:00,
2014-08-23 05:25:00,80.3,69.2,29.94,South,182,2.6,6.9,69,0.00,CLR,,0.00,0.0,WeatherDisplay:10.37,2014-08-23 10:25:00,
2014-08-23 05:30:00,80.3,69.2,29.94,South,181,4.8,6.9,69,0.00,CLR,,0.00,0.0,WeatherDisplay:10.37,2014-08-23 10:30:00,
2014-08-23 05:35:00,80.2,69.1,29.95,South,171,3.1,5.8,69,0.00,CLR,,0.00,0.0,WeatherDisplay:10.37,2014-08-23 10:35:00,
2014-08-23 05:40:00,80.2,69.1,29.95,SW,233,3.2,5.8,69,0.00,CLR,,0.00,0.0,WeatherDisplay:10.37,2014-08-23 10:40:00,
2014-08-23 05:45:00,80.1,69.0,29.94,SSW,195,1.5,4.6,69,0.00,CLR,,0.00,0.0,WeatherDisplay:10.37,2014-08-23 10:45:00,
2014-08-23 05:50:00,80.0,68.9,29.94,SSE,161,0.8,2.3,69,0.00,CLR,,0.00,0.0,WeatherDisplay:10.37,2014-08-23 10:50:00,
2014-08-23 05:55:00,79.8,68.7,29.94,South,185,2.2,4.6,69,0.00,CLR,,0.00,0.0,WeatherDisplay:10.37,2014-08-23 10:55:00,
2014-08-23 06:00:00,79.6,69.0,29.94,South,189,2.1,4.6,70,0.00,CLR,,0.00,0.0,WeatherDisplay:10.37,2014-08-23 11:00:00,
2014-08-23 06:05:00,79.6,69.0,29.95,SSE,167,2.0,3.5,70,0.00,CLR,,0.00,0.0,WeatherDisplay:10.37,2014-08-23 11:05:00,
2014-08-23 06:10:00,79.5,68.9,29.94,South,185,0.9,4.6,70,0.00,CLR,,0.00,0.0,WeatherDisplay:10.37,2014-08-23 11:10:00,
2014-08-23 06:16:00,79.3,68.7,29.94,SSW,199,1.8,1.8,70,0.00,CLR,,0.00,0.0,WeatherDisplay:10.37,2014-08-23 11:16:00,
2014-08-23 06:21:00,79.2,68.6,29.94,South,181,3.6,4.6,70,0.00,CLR,,0.00,0.0,WeatherDisplay:10.37,2014-08-23 11:21:00,
2014-08-23 06:26:00,79.1,68.9,29.95,South,182,0.1,1.2,71,0.00,CLR,,0.00,0.0,WeatherDisplay:10.37,2014-08-23 11:26:00,
2014-08-23 06:31:00,78.9,68.7,29.95,South,183,0.4,2.3,71,0.00,CLR,,0.00,0.0,WeatherDisplay:10.37,2014-08-23 11:31:00,
2014-08-23 06:36:00,78.8,68.6,29.95,SSE,159,0.1,1.2,71,0.00,CLR,,0.00,0.0,WeatherDisplay:10.37,2014-08-23 11:36:00,
2014-08-23 06:41:00,78.6,68.8,29.95,South,175,0.9,3.5,72,0.00,CLR,,0.00,0.0,WeatherDisplay:10.37,2014-08-23 11:41:00,
2014-08-23 06:46:00,78.5,68.7,29.95,South,170,0.0,0.0,72,0.00,CLR,,0.00,0.0,WeatherDisplay:10.37,2014-08-23 11:46:00,
2014-08-23 06:51:00,78.3,68.9,29.95,SSE,157,0.0,1.0,73,0.00,CLR,,0.00,0.0,WeatherDisplay:10.37,2014-08-23 11:51:00,
2014-08-23 06:56:00,78.0,69.4,29.95,SE,140,1.7,2.3,75,0.00,CLR,,0.00,5.0,WeatherDisplay:10.37,2014-08-23 11:56:00,
2014-08-23 07:01:00,77.8,69.6,29.95,SE,141,1.6,3.5,76,0.00,CLR,,0.00,7.0,WeatherDisplay:10.37,2014-08-23 12:01:00,
2014-08-23 07:06:00,77.5,69.7,29.95,SE,143,0.0,1.2,77,0.00,CLR,,0.00,12.0,WeatherDisplay:10.37,2014-08-23 12:06:00,
2014-08-23 07:11:00,77.3,69.5,29.96,SSE,159,0.0,0.0,77,0.00,CLR,,0.00,16.0,WeatherDisplay:10.37,2014-08-23 12:11:00,
2014-08-23 07:16:00,77.3,69.9,29.96,SSE,159,0.0,0.0,78,0.00,CLR,,0.00,21.0,WeatherDisplay:10.37,2014-08-23 12:16:00,
2014-08-23 07:21:00,77.3,69.9,29.96,SSE,159,0.3,0.0,78,0.00,CLR,,0.00,25.0,WeatherDisplay:10.37,2014-08-23 12:21:00,
2014-08-23 07:26:00,77.3,69.9,29.96,South,191,1.6,2.3,78,0.00,SCT,,0.00,32.0,WeatherDisplay:10.37,2014-08-23 12:26:00,
2014-08-23 07:31:00,77.6,69.8,29.96,SW,214,1.6,2.3,77,0.00,FEW,,0.00,42.0,WeatherDisplay:10.37,2014-08-23 12:31:00,
2014-08-23 07:36:00,77.8,70.0,29.96,South,177,1.3,4.1,77,0.00,FEW,,0.00,53.0,WeatherDisplay:10.37,2014-08-23 12:36:00,
2014-08-23 07:41:00,78.2,69.6,29.97,South,190,4.5,4.6,75,0.00,FEW,,0.00,63.0,WeatherDisplay:10.37,2014-08-23 12:41:00,
2014-08-23 07:46:00,78.7,69.7,29.97,South,182,2.0,4.6,74,0.00,FEW,,0.00,79.0,WeatherDisplay:10.37,2014-08-23 12:46:00,
2014-08-23 07:51:00,79.1,69.7,29.97,SSE,163,3.9,4.6,73,0.00,CLR,,0.00,95.0,WeatherDisplay:10.37,2014-08-23 12:51:00,
2014-08-23 07:56:00,79.6,69.8,29.97,South,173,1.8,9.2,72,0.00,CLR,,0.00,109.0,WeatherDisplay:10.37,2014-08-23 12:56:00,
2014-08-23 08:01:00,80.1,69.8,29.97,SSE,159,0.9,4.6,71,0.00,CLR,,0.00,128.0,WeatherDisplay:10.37,2014-08-23 13:01:00,
2014-08-23 08:06:00,80.7,70.4,29.97,South,189,0.8,3.5,71,0.00,CLR,,0.00,148.0,WeatherDisplay:10.37,2014-08-23 13:06:00,
2014-08-23 08:11:00,81.1,70.0,29.97,South,178,5.7,6.9,69,0.00,CLR,,0.00,165.0,WeatherDisplay:10.37,2014-08-23 13:11:00,
2014-08-23 08:16:00,81.5,69.9,29.97,SSW,200,5.3,8.1,68,0.00,CLR,,0.00,186.0,WeatherDisplay:10.37,2014-08-23 13:16:00,
2014-08-23 08:21:00,81.8,69.8,29.97,SE,140,1.4,4.6,67,0.00,CLR,,0.00,207.0,WeatherDisplay:10.37,2014-08-23 13:21:00,
2014-08-23 08:26:00,82.3,69.4,29.97,South,189,8.0,11.5,65,0.00,CLR,,0.00,229.0,WeatherDisplay:10.37,2014-08-23 13:26:00,
2014-08-23 08:31:00,82.5,69.5,29.97,South,179,2.3,8.1,65,0.00,CLR,,0.00,243.0,WeatherDisplay:10.37,2014-08-23 13:31:00,
2014-08-23 08:36:00,82.9,69.5,29.97,South,179,3.5,8.1,64,0.00,CLR,,0.00,260.0,WeatherDisplay:10.37,2014-08-23 13:36:00,
2014-08-23 08:41:00,83.0,68.6,29.97,South,176,7.3,13.8,62,0.00,CLR,,0.00,279.0,WeatherDisplay:10.37,2014-08-23 13:41:00,
2014-08-23 08:46:00,83.2,68.3,29.97,SSW,213,8.7,12.7,61,0.00,CLR,,0.00,294.0,WeatherDisplay:10.37,2014-08-23 13:46:00,
2014-08-23 08:51:00,83.5,68.6,29.97,SSW,195,7.5,10.4,61,0.00,CLR,,0.00,313.0,WeatherDisplay:10.37,2014-08-23 13:51:00,
2014-08-23 08:56:00,83.9,68.5,29.97,SSE,163,5.9,13.8,60,0.00,CLR,,0.00,334.0,WeatherDisplay:10.37,2014-08-23 13:56:00,
2014-08-23 09:01:00,84.2,67.8,29.97,SE,144,9.6,13.8,58,0.00,CLR,,0.00,350.0,WeatherDisplay:10.37,2014-08-23 14:01:00,
2014-08-23 09:06:00,84.3,67.4,29.97,South,190,9.8,10.4,57,0.00,CLR,,0.00,366.0,WeatherDisplay:10.37,2014-08-23 14:06:00,
2014-08-23 09:11:00,84.6,67.7,29.97,South,189,2.0,10.4,57,0.00,CLR,,0.00,383.0,WeatherDisplay:10.37,2014-08-23 14:11:00,
2014-08-23 09:16:00,85.0,67.5,29.97,SSW,192,4.4,6.9,56,0.00,CLR,,0.00,403.0,WeatherDisplay:10.37,2014-08-23 14:16:00,
2014-08-23 09:21:00,85.6,67.0,29.97,SSW,197,5.4,11.5,54,0.00,CLR,,0.00,417.0,WeatherDisplay:10.37,2014-08-23 14:21:00,
2014-08-23 09:26:00,86.1,67.0,29.97,South,186,8.5,11.5,53,0.00,CLR,,0.00,436.0,WeatherDisplay:10.37,2014-08-23 14:26:00,
2014-08-23 09:31:00,86.3,66.0,29.97,SW,219,12.7,17.3,51,0.00,CLR,,0.00,452.0,WeatherDisplay:10.37,2014-08-23 14:31:00,
2014-08-23 09:36:00,86.5,65.1,29.97,SSW,206,8.7,15.0,49,0.00,CLR,,0.00,471.0,WeatherDisplay:10.37,2014-08-23 14:36:00,
2014-08-23 09:41:00,86.8,65.3,29.97,South,189,8.3,11.5,49,0.00,CLR,,0.00,480.0,WeatherDisplay:10.37,2014-08-23 14:41:00,
2014-08-23 09:46:00,87.2,66.3,29.97,South,184,7.9,7.9,50,0.00,CLR,,0.00,501.0,WeatherDisplay:10.37,2014-08-23 14:46:00,
2014-08-23 09:51:00,87.6,66.1,29.97,SSW,204,8.2,8.2,49,0.00,CLR,,0.00,517.0,WeatherDisplay:10.37,2014-08-23 14:51:00,
2014-08-23 09:56:00,87.7,66.2,29.97,SSW,199,4.3,13.8,49,0.00,CLR,,0.00,531.0,WeatherDisplay:10.37,2014-08-23 14:56:00,
2014-08-23 10:01:00,88.0,65.2,29.97,SSW,200,9.3,15.0,47,0.00,CLR,,0.00,548.0,WeatherDisplay:10.37,2014-08-23 15:01:00,
2014-08-23 10:06:00,88.4,65.6,29.97,SW,223,7.3,17.3,47,0.00,CLR,,0.00,563.0,WeatherDisplay:10.37,2014-08-23 15:06:00,
2014-08-23 10:11:00,88.5,65.7,29.97,SW,229,5.9,15.0,47,0.00,CLR,,0.00,578.0,WeatherDisplay:10.37,2014-08-23 15:11:00,
2014-08-23 10:16:00,88.5,65.7,29.97,WSW,237,7.6,13.8,47,0.00,CLR,,0.00,591.0,WeatherDisplay:10.37,2014-08-23 15:16:00,
2014-08-23 10:21:00,88.9,66.1,29.97,South,186,12.1,15.0,47,0.00,CLR,,0.00,608.0,WeatherDisplay:10.37,2014-08-23 15:21:00,
2014-08-23 10:26:00,89.3,66.4,29.97,SSW,192,7.3,10.4,47,0.00,CLR,,0.00,624.0,WeatherDisplay:10.37,2014-08-23 15:26:00,